Palmer, AK

9:55 PM AKST on February 20, 2017 (GMT -0900)
Palmer Municipal

Weather History for PAAQ - August, 2013

Change the Weather History Date:

Wednesday, August 14, 2013

  Actual Average Record
Temperature  
Mean Temperature 56 °F -  
Max Temperature 60 °F 64 °F 80 °F (1950)
Min Temperature 53 °F 46 °F 28 °F (1969)
Degree Days  
Heating Degree Days 9    
Growing Degree Days 6 (Base 50)    
Moisture  
Dew Point 52 °F    
Average Humidity 88    
Maximum Humidity 97    
Minimum Humidity 75    
Precipitation  
Precipitation 0.00 in - - ()
Sea Level Pressure  
Sea Level Pressure 29.99 in    
Wind  
Wind Speed 1 mph (SSE)    
Max Wind Speed 5 mph    
Max Gust Speed -    
Visibility 10 miles    
Events      
Averages and records for this station are not official NWS values.
T = Trace of Precipitation, MM = Missing Value Source: NWS Daily Summary

Daily Weather History Graph

Daily Weather History Graph

Search for Another Location

Airport or City:

Trip Planner

Search our weather history database for the weather conditions in past years. The results will help you decide how hot, cold, wet, or windy it might be!

Date:

Astronomy

Aug. 14, 2013 Rise Set
Actual Time 6:01 AM AKDT 9:58 PM AKDT
Civil Twilight 5:05 AM AKDT 10:54 PM AKDT
Nautical Twilight 3:33 AM AKDT 12:22 AM AKDT
Astronomical Twilight Sun does not rise Sun does not rise
Moon 4:49 PM AKDT (8/14) 11:51 PM AKDT (8/14)
Length of Visible Light 17h 49m
Length of Day
15h 57m
First Quarter, 54% of the Moon is Illuminated
Aug 14
First Quarter
Aug 20
Full
Aug 28
Last Quarter
Sep 5
New
Sep 12
First Quarter

Hourly Weather History & Observations

Time (AKDT) Temp. Dew Point Humidity Pressure Visibility Wind Dir Wind Speed Gust Speed Precip Events Conditions
12:53 AM 57.0 °F 51.1 °F 81% 30.04 in 10.0 mi Calm Calm - N/A   Overcast
1:53 AM 55.9 °F 52.0 °F 87% 30.04 in 10.0 mi Calm Calm - N/A   Overcast
2:53 AM 55.9 °F 52.0 °F 87% 30.03 in 10.0 mi Calm Calm - N/A   Overcast
3:53 AM 55.0 °F 53.1 °F 93% 30.03 in 10.0 mi Calm Calm - N/A   Overcast
4:53 AM 55.0 °F 52.0 °F 89% 30.02 in 10.0 mi Calm Calm - N/A   Overcast
5:50 AM 55.4 °F 53.6 °F 94% 30.02 in 10.0 mi Calm Calm - N/A   Overcast
5:53 AM 54.0 °F 53.1 °F 97% 30.03 in 10.0 mi Calm Calm - N/A   Overcast
6:53 AM 54.0 °F 53.1 °F 97% 30.03 in 10.0 mi Calm Calm - N/A   Overcast
7:02 AM 53.6 °F 51.8 °F 94% 30.02 in 10.0 mi Calm Calm - N/A   Overcast
7:53 AM 54.0 °F 53.1 °F 97% 30.02 in 6.0 mi Calm Calm - N/A   Overcast
8:45 AM 53.6 °F 51.8 °F 94% 30.01 in 10.0 mi SE 3.5 mph - N/A   Overcast
8:53 AM 54.0 °F 53.1 °F 97% 30.02 in 10.0 mi ESE 3.5 mph - N/A   Overcast
9:53 AM 54.0 °F 52.0 °F 93% 30.01 in 10.0 mi SE 3.5 mph - N/A   Overcast
10:12 AM 53.6 °F 51.8 °F 94% 30.00 in 10.0 mi SSE 3.5 mph - N/A   Overcast
10:53 AM 55.0 °F 52.0 °F 89% 30.00 in 10.0 mi Calm Calm - N/A   Overcast
11:49 AM 55.4 °F 51.8 °F 88% 29.99 in 9.0 mi South 3.5 mph - N/A   Overcast
11:53 AM 55.0 °F 52.0 °F 89% 30.00 in 9.0 mi South 3.5 mph - N/A   Overcast
12:15 PM 55.4 °F 51.8 °F 88% 30.00 in 10.0 mi SSE 3.5 mph - N/A   Overcast
12:30 PM 53.6 °F 51.8 °F 94% 29.99 in 10.0 mi South 3.5 mph - N/A   Overcast
12:53 PM 55.0 °F 52.0 °F 89% 30.00 in 10.0 mi SE 3.5 mph - N/A   Overcast
1:18 PM 55.4 °F 51.8 °F 88% 29.99 in 10.0 mi Calm Calm - N/A   Overcast
1:53 PM 55.9 °F 52.0 °F 87% 29.99 in 10.0 mi Calm Calm - N/A   Overcast
2:02 PM 55.4 °F 51.8 °F 88% 29.98 in 10.0 mi Calm Calm - N/A   Overcast
2:10 PM 55.4 °F 51.8 °F 88% 29.98 in 10.0 mi SSW 3.5 mph - N/A   Overcast
2:53 PM 57.0 °F 51.1 °F 81% 29.98 in 10.0 mi Calm Calm - N/A   Overcast
3:53 PM 57.9 °F 50.0 °F 75% 29.97 in 10.0 mi Calm Calm - N/A   Overcast
4:53 PM 59.0 °F 51.1 °F 75% 29.95 in 10.0 mi Calm Calm - N/A   Overcast
5:53 PM 59.0 °F 52.0 °F 78% 29.94 in 10.0 mi ESE 3.5 mph - N/A   Overcast
6:53 PM 59.0 °F 51.1 °F 75% 29.92 in 10.0 mi SSE 3.5 mph - N/A   Overcast
7:53 PM 59.0 °F 51.1 °F 75% 29.91 in 10.0 mi Calm Calm - N/A   Overcast
8:53 PM 57.0 °F 52.0 °F 83% 29.91 in 10.0 mi SSE 4.6 mph - N/A   Overcast
9:53 PM 55.9 °F 51.1 °F 84% 29.91 in 10.0 mi SE 3.5 mph - N/A   Overcast
10:53 PM 54.0 °F 51.1 °F 90% 29.90 in 10.0 mi Calm Calm - N/A   Overcast
11:53 PM 54.0 °F 50.0 °F 86% 29.91 in 10.0 mi Calm Calm - N/A   Overcast